TimeEDT,TemperatureF,Dew PointF,Humidity,Sea Level PressureIn,VisibilityMPH,Wind Direction,Wind SpeedMPH,Gust SpeedMPH,PrecipitationIn,Events,Conditions,WindDirDegrees,DateUTC
12:53 AM,64.9,61.0,87,30.00,10.0,Calm,Calm,-,N/A,,Clear,0,2013-06-19 04:53:00
1:53 AM,64.0,59.0,84,30.01,10.0,NE,6.9,-,N/A,,Clear,40,2013-06-19 05:53:00
2:53 AM,61.0,59.0,93,30.01,10.0,ENE,3.5,-,N/A,,Clear,60,2013-06-19 06:53:00
3:53 AM,59.0,57.0,93,30.02,10.0,Calm,Calm,-,N/A,,Clear,0,2013-06-19 07:53:00
4:53 AM,57.9,57.0,97,30.03,10.0,Calm,Calm,-,N/A,,Clear,0,2013-06-19 08:53:00
5:53 AM,57.9,57.0,97,30.04,9.0,Calm,Calm,-,N/A,,Clear,0,2013-06-19 09:53:00
6:53 AM,59.0,55.9,90,30.07,10.0,NNE,4.6,-,N/A,,Clear,30,2013-06-19 10:53:00
7:53 AM,63.0,55.9,78,30.08,10.0,Calm,Calm,-,N/A,,Clear,0,2013-06-19 11:53:00
8:53 AM,64.9,55.9,73,30.09,10.0,NE,5.8,-,N/A,,Clear,50,2013-06-19 12:53:00
9:53 AM,68.0,55.0,63,30.11,10.0,NE,8.1,-,N/A,,Clear,50,2013-06-19 13:53:00
10:53 AM,71.1,57.0,61,30.10,10.0,ENE,4.6,-,N/A,,Clear,60,2013-06-19 14:53:00
11:53 AM,73.9,57.0,55,30.11,10.0,Variable,5.8,-,N/A,,Clear,0,2013-06-19 15:53:00
12:53 PM,75.9,57.9,54,30.10,10.0,NE,9.2,-,N/A,,Clear,40,2013-06-19 16:53:00
1:53 PM,78.1,55.0,45,30.09,10.0,Variable,5.8,-,N/A,,Clear,0,2013-06-19 17:53:00
2:53 PM,79.0,55.9,45,30.09,10.0,NNE,5.8,-,N/A,,Clear,30,2013-06-19 18:53:00
3:53 PM,79.0,54.0,42,30.08,10.0,ENE,4.6,-,N/A,,Clear,70,2013-06-19 19:53:00
4:53 PM,80.1,53.1,39,30.07,10.0,Variable,3.5,-,N/A,,Clear,0,2013-06-19 20:53:00
5:53 PM,80.1,55.9,43,30.07,10.0,NE,5.8,-,N/A,,Clear,50,2013-06-19 21:53:00
6:53 PM,81.0,53.1,38,30.06,10.0,Calm,Calm,-,N/A,,Clear,0,2013-06-19 22:53:00
7:53 PM,77.0,57.0,50,30.06,10.0,NE,5.8,-,N/A,,Clear,40,2013-06-19 23:53:00
8:53 PM,70.0,60.1,71,30.08,10.0,Calm,Calm,-,N/A,,Clear,0,2013-06-20 00:53:00
9:53 PM,66.0,60.1,81,30.10,10.0,Calm,Calm,-,N/A,,Clear,0,2013-06-20 01:53:00
10:53 PM,62.1,59.0,90,30.12,10.0,Calm,Calm,-,N/A,,Clear,0,2013-06-20 02:53:00
11:53 PM,61.0,59.0,93,30.13,10.0,Calm,Calm,-,N/A,,Clear,0,2013-06-20 03:53:00